SAS4156 ENZV-ENBR

Flight info

Callsign SAS4156
Flight time 0h 35m
Altitude 16000
Route ALUVA
Aircraft E195/M-SDE3GILORVW/S

Departure

Time 2026-04-09 12:56
Airport Stavanger Airport, Sola (ENZV)

Arrival

Time 2026-04-09 13:32
Airport Bergen Airport, Flesland (ENBR)
Time Latitude Longitude Altitude Speed Heading
2026-04-09 12:44 58.88278 5.63097 24 ft 0 kts 254°
2026-04-09 12:50 58.88283 5.63127 23 ft 4 kts 254°
2026-04-09 12:50 58.88289 5.63170 28 ft 1 kts 254°
2026-04-09 12:50 58.88289 5.63171 28 ft 0 kts 254°
2026-04-09 12:53 58.88291 5.63152 27 ft 3 kts 290°
2026-04-09 12:53 58.88311 5.63149 24 ft 4 kts
2026-04-09 12:53 58.88335 5.63173 27 ft 6 kts 34°
2026-04-09 12:53 58.88383 5.63215 27 ft 10 kts 14°
2026-04-09 12:54 58.88444 5.63334 28 ft 14 kts 74°
2026-04-09 12:54 58.88530 5.63425 30 ft 17 kts
2026-04-09 12:54 58.88670 5.63419 30 ft 23 kts 359°
2026-04-09 12:54 58.88851 5.63413 29 ft 29 kts 359°
2026-04-09 12:55 58.89066 5.63407 25 ft 28 kts 359°
2026-04-09 12:55 58.89275 5.63403 23 ft 31 kts
2026-04-09 12:55 58.89339 5.63623 17 ft 20 kts 94°
2026-04-09 12:55 58.89224 5.63725 19 ft 34 kts 176°
2026-04-09 12:56 58.88764 5.63754 26 ft 96 kts 180°
2026-04-09 12:56 58.88236 5.63769 33 ft 133 kts 180°
2026-04-09 12:56 58.87223 5.63716 551 ft 144 kts 175°
2026-04-09 12:56 58.85919 5.63650 1716 ft 144 kts 173°
2026-04-09 12:57 58.84845 5.63597 2095 ft 161 kts 174°
2026-04-09 12:57 58.83690 5.63675 2669 ft 174 kts 171°
2026-04-09 12:57 58.82439 5.63868 3238 ft 187 kts 172°
2026-04-09 12:57 58.81538 5.63957 3597 ft 199 kts 173°
2026-04-09 12:58 58.80085 5.64022 4109 ft 217 kts 175°
2026-04-09 12:58 58.78554 5.64064 4909 ft 221 kts 176°
2026-04-09 12:58 58.77001 5.64105 5714 ft 225 kts 177°
2026-04-09 12:58 58.75442 5.63592 6441 ft 234 kts 200°
2026-04-09 12:59 58.74007 5.62082 7206 ft 237 kts 207°
2026-04-09 12:59 58.72627 5.60308 7964 ft 239 kts 211°
2026-04-09 12:59 58.71297 5.58286 8615 ft 244 kts 216°
2026-04-09 12:59 58.70041 5.56029 9383 ft 248 kts 221°
2026-04-09 13:00 58.68865 5.53579 10108 ft 255 kts 225°
2026-04-09 13:00 58.67738 5.50871 10495 ft 272 kts 229°
2026-04-09 13:00 58.66604 5.47768 10871 ft 288 kts 233°
2026-04-09 13:00 58.65565 5.44449 11677 ft 289 kts 236°
2026-04-09 13:01 58.64606 5.40990 12448 ft 294 kts 238°
2026-04-09 13:01 58.63707 5.37435 13273 ft 299 kts 239°
2026-04-09 13:01 58.62836 5.33811 14018 ft 305 kts 240°
2026-04-09 13:01 58.61994 5.30038 14756 ft 311 kts 242°
2026-04-09 13:02 58.61297 5.26053 15464 ft 321 kts 255°
2026-04-09 13:02 58.61358 5.21674 16034 ft 342 kts 277°
2026-04-09 13:02 58.62354 5.17381 16290 ft 372 kts 298°
2026-04-09 13:02 58.64234 5.13747 16304 ft 395 kts 321°
2026-04-09 13:03 58.66753 5.11454 16319 ft 409 kts 339°
2026-04-09 13:03 58.69512 5.10010 16020 ft 410 kts 345°
2026-04-09 13:03 58.72309 5.08981 16094 ft 411 kts 349°
2026-04-09 13:03 58.75179 5.08359 16097 ft 418 kts 354°
2026-04-09 13:04 58.78069 5.08178 16100 ft 413 kts 359°
2026-04-09 13:04 58.80938 5.08498 16096 ft 414 kts
2026-04-09 13:04 58.83807 5.09372 16099 ft 418 kts 12°
2026-04-09 13:04 58.86603 5.10833 16096 ft 413 kts 19°
2026-04-09 13:05 58.89283 5.12914 16091 ft 416 kts 27°
2026-04-09 13:05 58.91858 5.15385 16094 ft 411 kts 28°
2026-04-09 13:05 58.94408 5.17864 16093 ft 410 kts 27°
2026-04-09 13:05 58.96960 5.20304 16095 ft 408 kts 27°
2026-04-09 13:06 58.99508 5.22735 16098 ft 410 kts 27°
2026-04-09 13:06 59.02077 5.25135 16090 ft 410 kts 25°
2026-04-09 13:06 59.04736 5.27142 16095 ft 410 kts 17°
2026-04-09 13:06 59.07527 5.28352 16101 ft 411 kts
2026-04-09 13:07 59.10374 5.28734 16101 ft 410 kts 359°
2026-04-09 13:07 59.13203 5.28317 16107 ft 408 kts 349°
2026-04-09 13:07 59.15982 5.27163 16097 ft 407 kts 343°
2026-04-09 13:07 59.18709 5.25678 16097 ft 405 kts 341°
2026-04-09 13:08 59.21407 5.24122 16098 ft 407 kts 341°
2026-04-09 13:08 59.24115 5.22555 16098 ft 405 kts 341°
2026-04-09 13:08 59.26816 5.20989 16106 ft 405 kts 341°
2026-04-09 13:08 59.29522 5.19419 16094 ft 406 kts 341°
2026-04-09 13:09 59.32222 5.17851 16096 ft 405 kts 341°
2026-04-09 13:09 59.34923 5.16276 16126 ft 405 kts 341°
2026-04-09 13:09 59.37638 5.14699 16092 ft 408 kts 341°
2026-04-09 13:09 59.40367 5.13110 16095 ft 409 kts 340°
2026-04-09 13:10 59.43096 5.11513 16107 ft 410 kts 340°
2026-04-09 13:10 59.45835 5.09906 16102 ft 412 kts 340°
2026-04-09 13:10 59.48580 5.08293 16094 ft 410 kts 340°
2026-04-09 13:10 59.51307 5.06688 16088 ft 408 kts 341°
2026-04-09 13:11 59.54025 5.05089 16082 ft 408 kts 341°
2026-04-09 13:11 59.56745 5.03484 16080 ft 408 kts 341°
2026-04-09 13:11 59.59466 5.01874 16083 ft 408 kts 341°
2026-04-09 13:11 59.62188 5.00260 16078 ft 407 kts 341°
2026-04-09 13:12 59.64872 4.98669 16078 ft 408 kts 341°
2026-04-09 13:12 59.67594 4.97051 16073 ft 409 kts 341°
2026-04-09 13:12 59.70317 4.95430 16060 ft 408 kts 341°
2026-04-09 13:12 59.73066 4.93791 16060 ft 408 kts 341°
2026-04-09 13:13 59.75784 4.92167 16054 ft 408 kts 341°
2026-04-09 13:13 59.78488 4.90644 16086 ft 411 kts 345°
2026-04-09 13:13 59.81299 4.89639 16099 ft 410 kts 350°
2026-04-09 13:13 59.84126 4.88901 16063 ft 410 kts 351°
2026-04-09 13:14 59.86948 4.88143 16064 ft 410 kts 350°
2026-04-09 13:14 59.89772 4.87345 16063 ft 410 kts 350°
2026-04-09 13:14 59.92592 4.86532 16067 ft 409 kts 350°
2026-04-09 13:14 59.95410 4.85707 16068 ft 410 kts 349°
2026-04-09 13:15 59.98231 4.84880 15892 ft 406 kts 350°
2026-04-09 13:15 60.00980 4.84078 15572 ft 393 kts 350°
2026-04-09 13:15 60.03645 4.83295 15152 ft 384 kts 349°
2026-04-09 13:15 60.06284 4.82515 14607 ft 381 kts 349°
2026-04-09 13:16 60.08890 4.81745 14077 ft 378 kts 349°
2026-04-09 13:16 60.11480 4.80984 13522 ft 374 kts 349°
2026-04-09 13:16 60.14033 4.80251 13072 ft 368 kts 349°
2026-04-09 13:16 60.16549 4.79527 12580 ft 363 kts 349°
2026-04-09 13:17 60.19033 4.78804 12110 ft 358 kts 349°
2026-04-09 13:17 60.21481 4.78096 11627 ft 354 kts 349°
2026-04-09 13:17 60.23902 4.77390 11170 ft 350 kts 349°
2026-04-09 13:17 60.26284 4.76696 10682 ft 339 kts 349°
2026-04-09 13:18 60.28561 4.76041 10254 ft 324 kts 349°
2026-04-09 13:18 60.30767 4.75394 9839 ft 319 kts 349°
2026-04-09 13:18 60.32956 4.74750 9426 ft 316 kts 349°
2026-04-09 13:18 60.35131 4.74112 9001 ft 317 kts 349°
2026-04-09 13:19 60.37312 4.73467 8578 ft 316 kts 349°
2026-04-09 13:19 60.39475 4.72832 8256 ft 311 kts 349°
2026-04-09 13:19 60.41574 4.72155 8094 ft 300 kts 343°
2026-04-09 13:19 60.43491 4.70818 8018 ft 284 kts 331°
2026-04-09 13:20 60.45272 4.69284 7982 ft 274 kts 333°
2026-04-09 13:20 60.47116 4.68445 8005 ft 277 kts 352°
2026-04-09 13:20 60.49094 4.68407 8092 ft 286 kts 359°
2026-04-09 13:20 60.51056 4.68537 8087 ft 283 kts
2026-04-09 13:21 60.53000 4.69381 7678 ft 295 kts 26°
2026-04-09 13:21 60.54553 4.71977 7087 ft 279 kts 65°
2026-04-09 13:21 60.55063 4.75452 7022 ft 243 kts 102°
2026-04-09 13:21 60.54543 4.78376 6979 ft 207 kts 139°
2026-04-09 13:22 60.53462 4.80121 6819 ft 202 kts 153°
2026-04-09 13:22 60.52301 4.81783 6646 ft 206 kts 148°
2026-04-09 13:22 60.51247 4.83775 6428 ft 207 kts 143°
2026-04-09 13:22 60.50360 4.86089 6215 ft 212 kts 129°
2026-04-09 13:23 60.49789 4.88888 5996 ft 219 kts 116°
2026-04-09 13:23 60.49455 4.91927 5697 ft 222 kts 111°
2026-04-09 13:23 60.49199 4.94990 5386 ft 217 kts 110°
2026-04-09 13:23 60.48971 4.97918 5076 ft 206 kts 111°
2026-04-09 13:24 60.48736 5.00752 4765 ft 202 kts 112°
2026-04-09 13:24 60.48495 5.03556 4449 ft 202 kts 112°
2026-04-09 13:24 60.48234 5.06356 4132 ft 202 kts 112°
2026-04-09 13:24 60.47966 5.09145 3818 ft 200 kts 111°
2026-04-09 13:25 60.47706 5.11908 3518 ft 199 kts 111°
2026-04-09 13:25 60.47352 5.14466 3200 ft 176 kts 129°
2026-04-09 13:25 60.46472 5.15712 3138 ft 141 kts 161°
2026-04-09 13:25 60.45635 5.16237 3218 ft 112 kts 171°
2026-04-09 13:26 60.44911 5.16477 3067 ft 105 kts 165°
2026-04-09 13:26 60.44218 5.16795 2992 ft 94 kts 168°
2026-04-09 13:26 60.43580 5.16998 2904 ft 94 kts 169°
2026-04-09 13:26 60.42930 5.17210 2782 ft 95 kts 168°
2026-04-09 13:27 60.42284 5.17437 2644 ft 93 kts 168°
2026-04-09 13:27 60.41645 5.17655 2525 ft 93 kts 168°
2026-04-09 13:27 60.40996 5.17876 2397 ft 96 kts 168°
2026-04-09 13:27 60.40323 5.18106 2280 ft 100 kts 168°
2026-04-09 13:28 60.39652 5.18332 2137 ft 96 kts 168°
2026-04-09 13:28 60.38987 5.18551 1996 ft 97 kts 168°
2026-04-09 13:28 60.38325 5.18776 1865 ft 97 kts 168°
2026-04-09 13:28 60.37656 5.19008 1730 ft 98 kts 167°
2026-04-09 13:29 60.36979 5.19239 1590 ft 100 kts 168°
2026-04-09 13:29 60.36281 5.19477 1451 ft 104 kts 168°
2026-04-09 13:29 60.35564 5.19708 1306 ft 102 kts 167°
2026-04-09 13:29 60.34871 5.19950 1127 ft 101 kts 167°
2026-04-09 13:30 60.34177 5.20187 1000 ft 102 kts 167°
2026-04-09 13:30 60.33465 5.20414 848 ft 107 kts 167°
2026-04-09 13:30 60.32736 5.20660 690 ft 105 kts 165°
2026-04-09 13:30 60.31995 5.20926 545 ft 110 kts 166°
2026-04-09 13:31 60.31242 5.21178 393 ft 108 kts 168°
2026-04-09 13:31 60.30504 5.21423 215 ft 109 kts 168°
2026-04-09 13:31 60.29808 5.21661 154 ft 95 kts 171°
2026-04-09 13:31 60.29204 5.21865 158 ft 79 kts 171°
2026-04-09 13:32 60.28842 5.21985 161 ft 39 kts 170°
2026-04-09 13:32 60.28692 5.22036 161 ft 16 kts 163°
2026-04-09 13:32 60.28667 5.22217 161 ft 14 kts 80°
2026-04-09 13:32 60.28682 5.22400 163 ft 13 kts 80°
2026-04-09 13:33 60.28710 5.22565 166 ft 12 kts 78°
2026-04-09 13:33 60.28728 5.22707 170 ft 9 kts 58°
2026-04-09 13:33 60.28775 5.22773 172 ft 8 kts 30°
2026-04-09 13:33 60.28815 5.22833 172 ft 5 kts 77°
2026-04-09 13:34 60.28819 5.22873 172 ft 2 kts 79°
2026-04-09 13:34 60.28820 5.22879 172 ft 0 kts 79°
2026-04-09 13:34 60.28820 5.22880 172 ft 0 kts 79°